TimeEDT,TemperatureF,Dew PointF,Humidity,Sea Level PressureIn,VisibilityMPH,Wind Direction,Wind SpeedMPH,Gust SpeedMPH,PrecipitationIn,Events,Conditions,WindDirDegrees,DateUTC
12:53 AM,48.9,43.0,80,30.17,10.0,Calm,Calm,-,N/A,,Clear,0,2013-09-15 04:53:00
1:53 AM,48.0,42.1,80,30.17,10.0,Calm,Calm,-,N/A,,Clear,0,2013-09-15 05:53:00
2:53 AM,46.9,42.1,83,30.17,10.0,Calm,Calm,-,N/A,,Clear,0,2013-09-15 06:53:00
3:53 AM,48.0,43.0,83,30.17,10.0,Calm,Calm,-,N/A,,Clear,0,2013-09-15 07:53:00
4:53 AM,48.9,43.0,80,30.17,10.0,Calm,Calm,-,N/A,,Clear,0,2013-09-15 08:53:00
5:53 AM,48.0,43.0,83,30.19,10.0,Calm,Calm,-,N/A,,Clear,0,2013-09-15 09:53:00
6:53 AM,48.0,43.0,83,30.19,10.0,Calm,Calm,-,N/A,,Clear,0,2013-09-15 10:53:00
7:53 AM,50.0,44.1,80,30.22,10.0,Calm,Calm,-,N/A,,Clear,0,2013-09-15 11:53:00
8:53 AM,57.9,46.9,67,30.21,10.0,Calm,Calm,-,N/A,,Clear,0,2013-09-15 12:53:00
9:53 AM,64.0,48.9,58,30.21,10.0,Calm,Calm,-,N/A,,Clear,0,2013-09-15 13:53:00
10:53 AM,68.0,44.1,42,30.20,10.0,Variable,4.6,-,N/A,,Clear,0,2013-09-15 14:53:00
11:53 AM,71.1,48.0,44,30.19,10.0,Calm,Calm,-,N/A,,Clear,0,2013-09-15 15:53:00
12:53 PM,72.0,48.0,43,30.17,10.0,Variable,3.5,-,N/A,,Clear,0,2013-09-15 16:53:00
1:53 PM,73.9,50.0,43,30.14,10.0,Variable,4.6,-,N/A,,Clear,0,2013-09-15 17:53:00
2:53 PM,73.9,50.0,43,30.13,10.0,WSW,5.8,-,N/A,,Clear,250,2013-09-15 18:53:00
3:53 PM,75.9,50.0,40,30.09,10.0,SSW,4.6,-,N/A,,Clear,210,2013-09-15 19:53:00
4:53 PM,75.0,50.0,41,30.09,10.0,Variable,3.5,-,N/A,,Clear,0,2013-09-15 20:53:00
5:53 PM,73.9,50.0,43,30.08,10.0,SW,3.5,-,N/A,,Clear,230,2013-09-15 21:53:00
6:53 PM,68.0,55.0,63,30.08,10.0,Calm,Calm,-,N/A,,Clear,0,2013-09-15 22:53:00
7:53 PM,66.0,53.1,63,30.08,10.0,Calm,Calm,-,N/A,,Clear,0,2013-09-15 23:53:00
8:53 PM,64.0,54.0,70,30.08,10.0,Calm,Calm,-,N/A,,Clear,0,2013-09-16 00:53:00
9:53 PM,63.0,54.0,72,30.08,10.0,Calm,Calm,-,N/A,,Clear,0,2013-09-16 01:53:00
10:53 PM,64.0,54.0,70,30.08,10.0,Calm,Calm,-,N/A,,Scattered Clouds,0,2013-09-16 02:53:00
11:53 PM,62.1,55.0,78,30.06,10.0,Calm,Calm,-,N/A,,Partly Cloudy,0,2013-09-16 03:53:00